User: anonymous   Login
Location: Aalen
(48.8330°N, 10.1000°E)
Time: 09:14:27
(UTC+02:00)
Language:

QB50P2 - Orbit

View from above orbital plane
View from above orbital plane
View from above satellite
View from above satellite

Ground track
Ground track

The orbit data is extracted from the following two-line orbital elements,

1 40032U 14033Y   23090.23065616  .00009172  00000-0  90324-3 0  9993
2 40032  97.9611  29.8638 0010645 180.7314 179.3891 14.92250179476869
Epoch (UTC): 31 March 2023 05:32:08
Eccentricity: 0.0010645
inclination: 97.9611°
perigee height: 583 km
apogee height: 598 km
right ascension of ascending node: 29.8638°
argument of perigee: 180.7314°
revolutions per day: 14.92250179
mean anomaly at epoch: 179.3891°
orbit number at epoch: 47686

The dashed part of the orbit path shows where the satellite is in the earth's shadow,  

DLR